Погода в Катравоже

Россия / Ямало-Ненецкий автономный округ     66°19′24″N   66°04′46″E
темп.,
°C
ветер,
м/с
пор.,
м/с
влажн.,
%
обл.,
%
осадки,
мм/ч
давл.,
гПа
погр.,
м
29 июня, ср
ср2923:00+9ссв714480 0.0 1010428
02:00+6ссз33665 0.0 101145
05:00+7ссз35655 0.0 1010228
08:00+11ссз453956 0.0 1009719
11:00+13ссз553495 0.0 10081434
14:00+14с4536100 0.0 10072316
17:00+10св91052100 0.1 10101367
20:00+8св81158100 0.0 1011994
30 июня, чт
чт3023:00+7ссв6116112 0.0 1012442
02:00+4с5116850 0.0 1013291
05:00+6ссв5126525 0.0 1013824
08:00+10ссв71048100 0.0 10131166
11:00+14св810374 0.0 10131522
14:00+16св911455 0.0 10131610
17:00+16св9104517 0.0 10131482
20:00+14св795299 0.0 1013886
1 июля, пт
пт123:00+10св476594 0.0 1014134
02:00+9сз3468100 0.0 101397
05:00+11зсз2467100 0.0 1013185
08:00+12с2359100 0.0 1012511
11:00+16ссз34416 0.0 10121159
14:00+18ссз463666 0.0 10111650
17:00+19ссз56375 0.0 10101919
20:00+18сз574781 0.0 1010351
2 июля, сб
сб223:00+15ссз5954100 0.0 1011220
02:00+11ссв3573100 0.4 1011131
05:00+11с2372100 0.5 101189
08:00+13ссв2458100 0.0 1011651
11:00+14зсз3358100 0.0 1011936
14:00+16с2363100 0.1 1011923
17:00+15всв6650100 0.3 10121019
20:00+13всв5949100 0.0 1013779
3 июля, вс
вс323:00+9всв336152 0.0 101434
02:00+7зсз33685 0.0 101420
05:00+10зюз346575 0.0 1013142
08:00+12зсз335698 0.0 1013551
11:00+16ссз3445100 0.0 10121173
14:00+18сз4442100 0.0 10111472
17:00+18ссз5544100 0.0 10101681
20:00+17зсз2357100 0.0 1009118